SCP
0 0 0 0 0 0 0 0 0 0 0 0 0 0 0 0 0 0 0 0 1 1 1 1 1 1 1 0 0 0 0 0 0 0 0 0 0 0 0 0 0 0 0 0 0 0 0 0 0
0 0 0 0 0 0 0 0 0 0 0 0 0 0 0 0 0 0 0 0 1 1 1 1 1 1 1 0 0 0 0 0 0 0 0 0 0 0 0 0 0 0 0 0 0 0 0 0 0
0 0 0 0 0 0 0 0 0 0 0 0 0 0 0 0 0 0 0 1 1 1 1 1 1 1 1 1 0 0 0 0 0 0 0 0 0 0 0 0 0 0 0 0 0 0 0 0 0
0 0 0 0 0 0 0 0 0 0 0 0 0 0 0 0 0 0 0 1 1 1 1 1 1 1 1 1 1 0 0 0 0 0 0 0 0 0 0 0 0 0 0 0 0 0 0 0 0
0 0 0 0 0 0 0 0 0 0 0 0 0 0 0 0 0 0 0 1 1 1 1 1 1 1 1 1 1 1 0 0 0 0 0 0 0 0 0 0 0 0 0 0 0 0 0 0 0
0 0 0 0 0 0 0 0 0 0 0 0 0 0 0 0 0 0 0 1 1 1 1 1 1 1 1 1 1 1 1 0 0 0 0 0 0 0 0 0 0 0 0 0 0 0 0 0 0
0 0 0 0 0 0 0 0 0 0 0 0 0 0 0 0 0 0 0 1 1 1 1 1 1 1 1 1 1 1 0 0 0 0 0 0 0 0 0 0 0 0 0 0 0 0 0 0 0
0 0 0 0 0 0 0 0 0 0 0 0 0 0 0 0 0 0 1 1 1 1 1 1 1 1 1 1 1 0 0 0 0 0 0 0 0 0 0 0 0 0 0 0 0 0 0 0 0
0 0 0 0 0 0 0 0 0 0 0 0 0 0 0 0 0 1 1 1 1 1 1 1 1 1 1 1 0 0 0 0 0 0 0 0 0 0 0 0 0 0 0 0 0 0 0 0 0
0 0 0 0 0 0 0 0 0 0 0 0 0 0 0 0 0 0 1 1 1 1 1 1 1 1 1 1 0 0 0 0 0 0 0 0 0 0 0 -0 -0 -0 0 0 0 0 0 0 0
0 0 0 0 0 0 0 0 0 0 0 0 0 0 0 0 0 0 1 1 1 1 1 1 1 1 1 0 0 0 0 0 0 0 0 0 0 0 0 -0 -0 -0 0 0 0 0 0 0 0
0 0 0 0 0 0 0 0 0 0 0 0 0 0 0 0 0 0 0 0 1 1 1 1 1 1 1 0 0 0 0 0 0 0 0 0 0 0 0 -0 -0 -0 0 0 0 0 0 0 0
0 0 0 0 0 0 0 0 0 0 0 0 0 0 0 0 0 0 0 0 1 1 1 1 1 1 0 0 0 0 0 0 0 0 0 0 0 0 0 0 0 0 0 0 0 0 0 0 0
0 0 0 0 0 0 0 0 0 0 0 0 0 0 0 0 0 0 0 0 0 0 0 0 0 0 0 0 0 0 0 0 0 0 0 0 0 0 0 0 0 0 0 0 0 0 0 0 0
0 0 0 0 0 0 0 0 0 0 0 0 0 0 0 0 0 0 0 0 0 0 0 0 0 0 0 0 0 0 0 0 0 0 0 0 0 0 0 0 0 0 0 0 0 0 0 0 0
0 0 0 0 0 0 0 0 0 0 0 0 0 0 0 0 0 0 0 0 0 0 0 0 0 0 0 0 0 0 0 0 0 0 0 0 0 0 0 0 0 0 0 0 0 0 0 0 0
0 0 0 0 0 0 0 0 0 0 0 0 0 0 0 0 0 0 0 0 0 0 0 0 0 0 0 0 0 0 0 0 0 0 0 0 0 0 0 0 0 0 0 0 0 0 0 0 0
0 0 0 0 0 0 0 0 0 0 0 0 0 0 0 0 0 0 0 0 0 0 0 0 0 0 0 0 0 0 0 0 0 0 0 0 0 0 0 0 0 0 0 0 0 0 0 0 0
0 0 0 0 0 0 0 0 0 0 0 0 0 0 0 0 0 0 0 0 0 0 0 0 0 0 0 0 0 0 0 0 0 0 0 0 0 0 0 0 0 0 0 0 0 0 0 0 0
0 0 0 0 0 0 0 0 0 0 0 0 0 0 0 0 0 0 0 0 0 0 0 0 0 0 0 0 0 0 0 0 0 0 0 0 0 0 0 0 0 0 0 0 0 0 0 0 0
0 0 0 0 0 0 0 0 0 0 0 0 0 0 0 0 0 0 0 0 0 0 0 0 0 0 0 0 0 0 0 0 0 0 0 0 0 0 0 0 0 0 0 0 0 0 0 0 0
0 0 0 0 0 0 0 0 0 0 0 0 0 0 0 0 0 0 0 0 0 0 0 0 0 0 0 0 0 0 0 0 0 0 0 0 0 0 0 0 0 0 0 0 0 0 0 0 0
0 0 0 0 0 0 0 0 0 0 0 0 0 0 0 0 0 0 0 0 0 0 0 0 0 0 0 0 0 0 0 0 0 0 0 0 0 0 0 0 0 0 0 0 0 0 0 0 0
0 0 0 0 0 0 0 0 0 0 0 0 0 0 0 0 0 0 0 0 0 0 0 0 0 0 0 0 0 0 0 0 0 0 0 0 0 0 0 0 0 0 0 0 0 0 0 0 0
0 0 0 0 0 0 0 0 0 0 0 0 0 0 0 0 0 0 0 0 0 0 0 0 0 0 0 0 0 0 0 0 0 0 0 0 0 0 0 0 0 0 0 0 0 0 0 0 0
0 0 0 0 0 0 0 0 0 0 0 0 0 0 0 0 0 0 0 0 0 0 0 0 0 0 0 0 0 0 0 0 0 0 0 0 0 0 0 0 0 0 0 0 0 0 0 0 0
0 0 0 0 0 0 0 0 0 0 0 0 0 0 0 0 0 0 0 0 0 0 0 0 0 0 0 0 0 0 0 0 0 0 0 0 0 0 0 0 0 0 0 0 0 0 0 0 0
0 0 0 0 0 0 0 0 0 0 0 0 0 0 0 0 0 0 0 0 0 0 0 0 0 0 0 0 0 0 0 0 0 0 0 0 0 0 0 0 0 0 0 0 0 0 0 0 0
0 0 0 0 0 0 0 0 0 0 0 0 0 0 0 0 0 0 0 0 0 0 0 0 0 0 0 0 0 0 0 0 0 0 0 0 0 0 0 0 0 0 0 0 0 0 0 0 0
0 0 0 0 0 0 0 0 0 0 0 0 0 0 0 0 0 0 0 0 0 0 0 0 0 0 0 0 0 0 0 0 0 0 0 0 0 0 0 0 0 0 0 0 0 0 0 0 0
Wind_Speed
8 9 7 2 3 5 9 8 6 3 1 1 4 3 3 5 4 8 4 9 14 15 14 14 15 15 14 14 13 13 13 13 13 13 13 13 13 13 13 13 13 13 13 13 13 13 12 12 12
8 8 5 3 5 7 8 10 7 3 3 4 3 2 3 5 7 8 5 10 14 15 13 13 15 15 15 15 14 14 13 13 13 13 13 13 13 13 12 13 13 13 13 13 12 12 12 11 10
11 8 4 4 6 8 7 6 6 4 6 4 2 2 2 4 7 5 7 11 13 13 12 14 15 14 15 15 14 14 13 13 13 13 12 12 12 13 13 12 12 12 12 12 12 11 11 10 9
5 3 4 7 12 11 8 1 4 5 4 4 4 4 4 5 4 7 9 10 12 13 12 13 14 15 14 14 14 14 13 13 13 12 12 12 12 12 12 12 12 11 11 11 11 10 10 9 8
4 4 6 9 13 11 7 1 3 5 5 5 4 4 5 4 8 9 8 10 12 12 13 13 14 14 14 14 14 13 13 13 13 12 12 12 12 12 11 11 11 10 10 10 9 9 8 8 7
4 4 7 11 13 12 7 3 3 3 5 6 5 4 5 5 7 7 7 9 11 12 13 13 14 14 14 14 14 13 12 12 12 12 12 11 11 11 11 10 10 9 9 9 9 8 7 7 6
5 5 9 11 10 10 7 4 4 4 4 5 4 4 6 6 6 6 7 8 10 11 12 11 10 11 13 13 13 13 12 12 12 12 11 11 10 10 10 10 9 9 9 8 8 8 7 6 5
4 4 8 11 11 8 5 4 3 2 2 2 2 4 6 9 7 6 7 7 9 9 10 10 9 9 9 9 12 12 12 12 11 11 11 10 10 9 9 9 8 8 8 7 7 6 6 5 4
4 5 8 10 8 4 3 4 2 1 1 1 4 5 10 13 9 7 7 6 7 8 7 8 8 8 8 8 10 10 11 11 10 9 10 8 5 5 5 7 8 7 7 6 6 5 4 3 1
6 7 10 6 4 2 2 3 3 3 3 2 5 9 12 10 9 8 8 8 7 7 7 6 7 8 7 7 7 5 5 6 5 4 5 3 3 4 6 7 7 6 6 5 4 3 2 1 1
7 8 7 6 4 3 0 1 2 4 4 5 7 10 11 10 9 8 8 8 8 7 7 6 7 7 6 5 5 3 3 3 4 4 4 3 3 3 4 2 3 3 3 2 1 1 1 1 1
8 9 8 6 2 2 1 0 2 3 1 2 7 9 10 10 9 9 8 7 7 7 7 6 7 6 6 5 4 4 3 2 2 3 4 3 2 3 2 2 1 1 1 1 0 0 0 1 1
12 8 7 4 2 2 2 2 2 3 1 3 7 7 8 9 8 6 7 8 7 7 7 6 6 6 5 5 4 4 3 3 3 3 3 4 3 3 2 2 1 1 1 1 1 1 1 1 1
9 8 7 5 4 3 3 3 4 3 2 4 7 6 6 7 7 6 7 8 7 7 7 6 6 6 6 5 4 4 3 3 3 3 3 4 3 3 2 2 2 1 1 1 1 1 1 1 1
7 7 7 7 7 4 3 6 7 4 4 5 6 6 6 6 6 6 7 7 8 7 7 6 6 6 6 5 4 4 3 4 3 3 3 3 3 3 2 2 2 1 1 1 1 2 2 2 2
7 8 8 8 9 6 5 8 7 6 6 6 6 6 6 6 6 6 6 6 7 8 7 6 6 6 6 5 5 4 4 4 3 3 3 3 3 3 2 2 1 1 1 1 1 1 2 2 2
8 10 11 8 11 7 8 6 5 6 7 7 7 6 6 6 6 5 6 7 7 8 8 7 6 6 6 5 4 4 4 4 3 3 3 3 3 3 2 2 1 2 2 1 1 2 1 2 2
11 11 12 11 10 9 9 6 4 5 6 7 6 6 6 6 6 5 5 6 7 7 8 7 6 6 5 4 4 4 4 3 3 3 3 3 3 3 2 2 2 2 2 1 1 1 1 1 1
9 11 10 8 8 9 10 9 7 5 5 5 5 6 6 6 5 5 5 6 6 7 7 7 7 6 5 3 3 3 3 3 3 3 4 4 3 3 3 2 2 2 1 1 1 1 1 1 1
9 9 8 4 7 7 8 9 6 6 6 6 6 5 6 6 6 5 5 5 6 6 6 7 6 6 5 4 3 3 4 3 3 3 3 3 3 3 2 2 1 1 1 1 1 1 1 1 1
10 8 7 5 4 4 4 6 8 6 6 5 5 5 5 6 6 6 5 5 5 6 6 6 6 6 5 5 3 4 3 3 2 3 2 2 3 3 3 2 2 1 1 1 0 1 1 0 1
9 6 5 6 5 4 6 5 8 8 7 7 6 5 5 5 5 5 5 4 4 4 4 5 6 6 5 5 5 6 5 4 3 3 3 3 3 3 3 2 2 1 1 1 0 1 1 1 0
5 3 3 5 4 2 5 4 5 10 10 9 7 5 5 4 5 5 4 4 3 3 4 4 5 5 5 4 5 5 4 3 3 4 4 3 2 3 3 2 2 1 1 1 1 1 0 0 1
3 4 2 1 2 5 8 6 4 7 11 10 8 6 5 4 4 5 4 4 3 3 4 4 4 4 5 4 4 4 5 4 5 5 4 3 2 2 3 2 2 2 1 1 1 0 0 1 1
5 6 4 3 4 6 7 6 3 1 4 7 8 6 5 5 4 4 5 4 3 3 3 4 5 4 5 4 4 4 4 4 5 5 4 4 2 2 2 2 2 1 1 1 1 0 1 1 1
7 6 5 5 6 3 6 6 2 2 4 5 6 6 5 4 4 4 4 4 3 3 3 4 4 4 4 4 3 3 3 3 3 3 3 3 2 2 3 2 2 2 1 1 1 0 1 1 1
5 5 2 0 1 2 5 3 2 3 4 5 5 5 4 4 4 4 4 4 4 4 3 3 4 4 4 4 3 3 3 3 3 3 3 2 2 2 3 2 2 1 1 1 1 0 1 1 1
1 2 1 1 3 3 5 6 5 7 5 5 5 4 4 4 4 4 4 4 4 3 3 3 3 4 3 3 3 3 3 3 3 3 3 3 3 2 3 2 1 1 1 1 0 0 1 1 1
2 2 2 2 2 2 4 2 1 5 6 6 5 4 4 3 3 3 3 4 4 4 4 3 3 4 3 3 3 4 3 3 3 3 3 3 2 3 3 2 1 1 1 0 0 1 1 1 1
1 2 2 2 2 2 1 0 3 5 6 6 5 5 4 3 4 4 4 4 4 4 4 3 3 4 3 3 3 4 3 3 3 3 3 3 2 2 2 2 1 1 1 1 1 1 1 1 2
Wind_Direction
263 250 241 238 230 230 236 240 241 223 211 25 26 22 30 31 47 109 156 121 119 125 130 131 127 126 124 122 119 118 115 112 110 108 106 105 103 102 99 95 92 89 87 85 84 82 82 79 78
260 240 234 230 231 227 229 226 235 202 108 64 34 23 44 70 81 105 125 118 122 125 131 132 128 126 125 124 122 121 118 115 111 108 106 105 104 101 98 95 91 88 86 83 81 81 80 77 75
258 242 225 221 228 229 234 200 192 143 107 114 114 22 41 77 96 109 121 124 121 122 126 127 129 127 126 125 123 121 118 116 113 111 108 106 104 102 98 94 90 87 85 83 80 79 79 76 73
230 215 243 237 236 237 253 232 122 131 128 145 145 110 74 44 78 111 125 128 123 122 122 127 128 127 126 125 123 120 118 116 113 112 110 107 104 103 100 96 93 90 89 87 84 81 80 76 72
234 218 222 233 240 243 244 242 102 141 159 174 173 124 94 66 89 112 131 128 124 122 122 129 126 125 126 125 122 120 118 117 115 113 111 109 107 105 101 99 96 95 94 91 89 85 81 76 70
216 228 221 224 231 236 230 191 149 177 181 177 170 139 106 113 111 127 131 125 121 121 123 129 125 124 122 122 122 121 120 119 117 114 112 110 108 107 104 102 100 97 96 94 92 88 83 76 68
227 229 238 236 231 226 212 183 179 201 191 175 157 135 132 133 125 137 126 119 118 122 127 132 133 127 122 121 121 120 120 118 116 114 112 111 109 108 106 102 100 99 97 94 92 89 83 75 67
250 255 240 242 240 226 192 174 191 210 180 118 118 134 147 138 138 133 117 111 114 120 129 136 138 135 128 122 118 117 116 117 117 116 113 112 110 108 106 101 98 99 99 97 94 91 87 79 68
251 241 233 230 239 233 171 155 164 43 67 38 52 71 114 129 137 126 118 112 116 122 125 132 134 131 128 128 124 119 116 117 117 119 124 123 120 116 108 106 103 101 101 102 102 103 103 97 76
213 227 231 243 260 252 183 154 149 157 162 152 93 96 117 132 142 143 144 140 135 133 131 127 125 126 126 128 127 128 128 130 127 132 136 130 111 107 107 107 110 110 109 108 114 120 124 140 185
210 232 241 258 314 340 48 147 158 190 194 181 152 141 140 145 150 155 154 147 141 137 131 126 124 126 126 124 129 124 122 128 130 128 121 106 101 106 107 114 120 124 130 124 134 162 218 182 143
222 234 242 254 320 318 307 259 215 236 203 114 132 141 148 155 162 163 157 147 136 131 127 126 126 126 125 123 122 123 122 121 112 111 112 108 105 101 106 106 120 127 123 116 145 207 6 40 49
227 231 236 247 253 264 269 248 245 239 75 79 115 136 158 162 163 162 154 143 137 135 131 127 122 124 123 116 120 118 120 118 112 107 101 98 99 100 97 88 82 81 73 65 32 30 35 25 16
215 224 230 228 218 233 234 239 239 220 152 132 135 154 168 165 162 158 149 146 144 142 138 133 127 123 120 118 115 116 116 112 106 104 103 100 99 100 96 92 81 65 55 48 28 22 42 25 25
217 218 225 217 204 200 204 238 224 201 171 167 164 168 172 165 164 162 155 151 147 142 138 137 134 128 123 119 119 117 118 112 112 109 107 102 98 100 100 99 87 65 40 35 25 20 26 15 16
206 212 216 209 200 191 194 231 211 189 189 188 181 173 170 167 167 157 148 146 142 139 138 140 136 130 125 123 122 117 116 113 112 110 104 101 100 97 94 92 94 81 58 47 39 30 24 11 5
197 207 206 201 196 185 203 230 206 190 191 192 186 176 170 164 162 155 148 146 144 141 139 136 135 134 128 123 121 118 114 113 114 108 104 103 102 100 101 103 95 79 65 48 33 33 35 16 358
194 204 204 199 185 192 208 221 210 196 191 194 185 174 168 164 162 151 146 144 141 139 138 139 135 132 126 120 113 110 110 112 110 108 111 109 106 105 100 98 85 77 71 45 38 40 24 26 342
208 209 211 203 176 192 208 216 214 194 192 192 183 170 168 162 151 143 138 139 136 135 137 140 138 135 128 128 132 130 131 127 116 112 116 114 112 105 102 93 86 82 87 75 45 45 27 13 6
232 219 212 188 176 193 207 220 214 194 198 194 184 174 168 159 154 145 141 142 143 145 146 143 144 144 142 144 144 137 130 126 124 120 118 119 114 111 106 106 100 93 94 68 52 59 41 9 30
223 220 208 177 179 208 201 224 213 195 195 193 184 177 168 166 161 153 149 148 149 153 157 153 151 150 147 142 131 118 100 99 107 122 126 130 125 117 111 117 114 100 105 130 115 104 101 50 327
217 219 209 180 168 204 194 216 208 187 191 198 192 177 170 161 152 149 145 146 151 154 147 147 150 148 145 144 145 147 146 148 157 148 139 137 131 126 122 117 115 113 101 100 108 99 109 116 301
210 190 188 188 196 213 205 215 218 179 191 192 185 173 160 148 142 136 134 136 137 141 144 143 143 144 143 145 148 150 146 142 138 138 139 140 134 132 130 129 125 124 108 92 47 51 74 147 197
169 138 138 192 206 228 208 202 233 196 191 179 175 167 152 136 127 127 119 112 112 116 133 142 145 147 145 148 151 154 149 147 143 144 147 148 140 140 140 141 138 133 119 108 88 26 289 246 240
171 147 151 180 204 224 197 206 226 152 150 157 158 157 142 130 125 123 126 128 122 126 135 144 147 146 147 149 155 160 154 151 150 150 150 148 145 143 153 143 141 134 133 134 125 121 281 269 263
196 184 173 180 190 199 182 203 192 96 86 100 112 113 111 115 125 126 129 129 129 134 138 139 142 140 141 146 151 149 143 137 140 145 143 149 151 152 151 144 136 133 131 126 139 190 252 263 270
186 214 255 308 190 170 190 169 173 128 103 103 112 114 113 111 109 110 115 123 129 134 135 138 141 135 138 142 141 140 132 127 128 130 126 132 134 135 137 139 135 139 138 141 157 197 263 276 259
225 204 176 174 178 197 194 191 189 165 150 128 124 116 107 96 88 98 110 112 116 116 113 113 124 132 131 134 140 130 124 123 125 127 130 128 125 126 137 142 144 144 141 140 120 213 270 261 262
178 185 201 201 229 195 188 186 45 145 140 130 115 100 93 89 86 88 90 96 102 102 101 96 99 103 110 110 119 118 117 116 117 124 131 131 133 139 146 157 156 151 149 146 200 248 263 265 269
204 183 179 179 235 247 190 261 28 88 101 113 112 102 95 86 80 81 82 81 89 95 99 98 96 98 102 102 106 113 113 114 120 126 127 126 131 135 143 152 162 164 167 173 207 251 255 258 269